FENGYUN 3F

Last updated on Tue Sep 22 2026 00:02:54 GMT+0000 (Coordinated Universal Time)

1 57490U 23111A 26264.65213413 .00000003 00000+0 21865-4 0 9996 2 57490 98.6750 332.8205 0001299 112.4555 247.6759 14.19951813162550
UTC large
Height (km)
Speed (km/s)
/
Latitude / Longitude
Inclination (degrees)
Orbital Period (minutes)
Azimuth
Elevation
Range (km)
Doppler Factor

Next 0 passes for location: London (51.5072 / 0.1276)

No passes found over London.
FENGYUN 3F